Monterey, CA

12:58 AM PST on December 04, 2016 (GMT -0800)
Monterey Peninsula

Weather History for KMRY - May, 2013

Change the Weather History Date:

Wednesday, May 15, 2013

  Actual Average Record
Temperature  
Mean Temperature 57 °F 57 °F  
Max Temperature 63 °F 63 °F 94 °F (2008)
Min Temperature 51 °F 50 °F 41 °F (2011)
Degree Days  
Heating Degree Days 8    
Month to date heating degree days 89  
Since 1 July heating degree days 3032  
Cooling Degree Days 0    
Month to date cooling degree days 7  
Year to date cooling degree days 7  
Growing Degree Days 6 (Base 50)    
Moisture  
Dew Point 48 °F    
Average Humidity 71    
Maximum Humidity 86    
Minimum Humidity 56    
Precipitation  
Precipitation 0.00 in - 0.12 in (2011)
Month to date precipitation 0.00  
Year to date precipitation 3.09  
Since 1 July precipitation 11.33  
Sea Level Pressure  
Sea Level Pressure 30.13 in    
Wind  
Wind Speed 8 mph (SW)    
Max Wind Speed 20 mph    
Max Gust Speed 29 mph    
Visibility 10 miles    
Events      
T = Trace of Precipitation, MM = Missing Value Source: NWS Daily Summary

Daily Weather History Graph

Daily Weather History Graph

Search for Another Location

Airport or City:

Trip Planner

Search our weather history database for the weather conditions in past years. The results will help you decide how hot, cold, wet, or windy it might be!

Date:

Astronomy

May. 15, 2013 Rise Set
Actual Time 6:00 AM PDT 8:07 PM PDT
Civil Twilight 5:31 AM PDT 8:36 PM PDT
Nautical Twilight 4:55 AM PDT 9:12 PM PDT
Astronomical Twilight 4:17 AM PDT 9:50 PM PDT
Moon 10:39 AM PDT (5/15) No Moon Set
Length of Visible Light 15h 05m
Length of Day
14h 07m
Waxing Crescent, 28% of the Moon is Illuminated
May 15
Waxing Crescent
May 17
First Quarter
May 24
Full
May 31
Last Quarter
Jun 8
New

Hourly Weather History & Observations

Time (PDT) Temp. Dew Point Humidity Pressure Visibility Wind Dir Wind Speed Gust Speed Precip Events Conditions
12:54 AM 52.0 °F 46.0 °F 80% 30.14 in 10.0 mi South 6.9 mph - N/A   Overcast
1:23 AM 51.8 °F 46.4 °F 82% 30.10 in 10.0 mi SSW 5.8 mph - N/A   Scattered Clouds
1:38 AM 51.8 °F 46.4 °F 82% 30.10 in 10.0 mi South 5.8 mph - N/A   Mostly Cloudy
1:54 AM 52.0 °F 46.0 °F 80% 30.13 in 10.0 mi South 5.8 mph - N/A   Overcast
2:54 AM 51.1 °F 46.0 °F 83% 30.12 in 10.0 mi South 5.8 mph - N/A   Overcast
3:54 AM 51.1 °F 46.0 °F 83% 30.12 in 9.0 mi South 5.8 mph - N/A   Overcast
4:54 AM 52.0 °F 46.0 °F 80% 30.12 in 9.0 mi South 3.5 mph - N/A   Overcast
5:54 AM 52.0 °F 46.0 °F 80% 30.13 in 9.0 mi South 3.5 mph - N/A   Overcast
6:54 AM 52.0 °F 46.0 °F 80% 30.14 in 9.0 mi South 5.8 mph - N/A   Overcast
7:08 AM 51.8 °F 46.4 °F 82% 30.10 in 8.0 mi SSW 4.6 mph - N/A   Overcast
7:54 AM 53.1 °F 46.9 °F 80% 30.14 in 9.0 mi West 6.9 mph - N/A   Mostly Cloudy
8:21 AM 53.6 °F 46.4 °F 77% 30.11 in 9.0 mi WSW 6.9 mph - N/A   Overcast
8:54 AM 55.0 °F 46.9 °F 74% 30.15 in 9.0 mi West 9.2 mph - N/A   Overcast
9:54 AM 55.9 °F 46.9 °F 72% 30.16 in 9.0 mi WNW 9.2 mph - N/A   Overcast
10:54 AM 57.9 °F 46.9 °F 67% 30.17 in 10.0 mi West 8.1 mph - N/A   Mostly Cloudy
11:54 AM 59.0 °F 46.9 °F 64% 30.17 in 10.0 mi West 10.4 mph - N/A   Mostly Cloudy
12:04 PM 60.8 °F 46.4 °F 59% 30.13 in 10.0 mi West 10.4 mph - N/A   Partly Cloudy
12:54 PM 60.1 °F 46.9 °F 62% 30.17 in 10.0 mi West 12.7 mph 19.6 mph N/A   Clear
1:54 PM 62.1 °F 46.9 °F 58% 30.18 in 10.0 mi WSW 11.5 mph 28.8 mph N/A   Clear
2:54 PM 61.0 °F 48.0 °F 62% 30.17 in 10.0 mi West 16.1 mph 24.2 mph N/A   Partly Cloudy
3:42 PM 60.8 °F 48.2 °F 63% 30.13 in 10.0 mi WSW 11.5 mph 23.0 mph N/A   Mostly Cloudy
3:54 PM 60.1 °F 48.9 °F 67% 30.16 in 10.0 mi West 10.4 mph 19.6 mph N/A   Mostly Cloudy
4:27 PM 60.8 °F 48.2 °F 63% 30.12 in 10.0 mi WSW 12.7 mph 19.6 mph N/A   Scattered Clouds
4:54 PM 60.1 °F 48.9 °F 67% 30.14 in 10.0 mi WSW 13.8 mph 18.4 mph N/A   Scattered Clouds
5:12 PM 59.0 °F 48.2 °F 67% 30.11 in 10.0 mi WSW 11.5 mph 18.4 mph N/A   Mostly Cloudy
5:54 PM 57.9 °F 48.9 °F 72% 30.14 in 10.0 mi Variable 6.9 mph 20.7 mph N/A   Overcast
6:54 PM 57.0 °F 48.9 °F 74% 30.13 in 10.0 mi WSW 9.2 mph 21.9 mph N/A   Overcast
7:12 PM 55.4 °F 48.2 °F 77% 30.09 in 10.0 mi WSW 9.2 mph - N/A   Mostly Cloudy
7:54 PM 55.9 °F 48.9 °F 77% 30.13 in 10.0 mi WSW 8.1 mph - N/A   Mostly Cloudy
8:54 PM 55.0 °F 48.9 °F 80% 30.14 in 10.0 mi SW 8.1 mph - N/A   Overcast
9:54 PM 55.0 °F 50.0 °F 83% 30.14 in 10.0 mi SW 9.2 mph - N/A   Overcast
10:54 PM 55.0 °F 50.0 °F 83% 30.14 in 10.0 mi SW 4.6 mph - N/A   Overcast
11:39 PM 55.4 °F 51.8 °F 88% 30.10 in 10.0 mi WSW 9.2 mph - N/A   Overcast
11:54 PM 55.0 °F 51.1 °F 86% 30.13 in 10.0 mi WSW 10.4 mph - N/A   Overcast